| time (UTC) | temp C | wind direction | speed KPH | gust KPH | rain 1hr cm | rain 24hr cm | rain mn cm | humidity % | barometer mb |
| 20260831010657 | 24 | 159 | 0.0 | 1.6 | 0.00 | 0.00 | 0.00 | 89 | 1021.4 |
| 20260831010152 | 24 | 166 | 1.6 | 3.2 | 0.00 | 0.00 | 0.00 | 89 | 1021.4 |
| 20260831005651 | 25 | 184 | 0.0 | 1.6 | 0.00 | 0.00 | 0.00 | 88 | 1021.1 |
| 20260831005147 | 25 | 176 | 0.0 | 1.6 | 0.00 | 0.00 | 0.00 | 88 | 1021.1 |
| 20260831004642 | 25 | 156 | 0.0 | 1.6 | 0.00 | 0.00 | 0.00 | 88 | 1020.8 |
| 20260831004138 | 25 | 152 | 0.0 | 1.6 | 0.00 | 0.00 | 0.00 | 88 | 1020.9 |
| 20260831003634 | 25 | 162 | 1.6 | 1.6 | 0.00 | 0.00 | 0.00 | 87 | 1020.7 |
| 20260831003130 | 25 | 156 | 1.6 | 1.6 | 0.00 | 0.00 | 0.00 | 86 | 1020.6 |
| 20260831002628 | 25 | 149 | 1.6 | 3.2 | 0.00 | 0.00 | 0.00 | 86 | 1020.7 |
| 20260831002124 | 25 | 160 | 1.6 | 3.2 | 0.00 | 0.00 | 0.00 | 85 | 1020.3 |
| 20260831001619 | 25 | 171 | 0.0 | 0.0 | 0.00 | 0.00 | 0.00 | 84 | 1020.5 |
| 20260831001115 | 26 | 184 | 0.0 | 0.0 | 0.00 | 0.00 | 0.00 | 83 | 1020.4 |
| 20260831000612 | 26 | 154 | 0.0 | 1.6 | 0.00 | 0.00 | 0.00 | 83 | 1020.4 |
| 20260831000111 | 26 | 152 | 0.0 | 1.6 | 0.00 | 0.00 | 0.00 | 82 | 1020.3 |
| 20260830235610 | 26 | 165 | 1.6 | 3.2 | 0.00 | 0.00 | 0.00 | 80 | 1020.4 |
| 20260830235105 | 26 | 170 | 0.0 | 1.6 | 0.00 | 0.00 | 0.00 | 81 | 1020.3 |
| 20260830234600 | 27 | 177 | 1.6 | 1.6 | 0.00 | 0.00 | 0.00 | 80 | 1020.3 |
| 20260830234055 | 27 | 174 | 0.0 | 0.0 | 0.00 | 0.00 | 0.00 | 78 | 1020.2 |
| 20260830233550 | 27 | 209 | 0.0 | 1.6 | 0.00 | 0.00 | 0.00 | 77 | 1020.3 |
| 20260830233046 | 27 | 177 | 0.0 | 1.6 | 0.00 | 0.00 | 0.00 | 77 | 1020.6 |
| 20260830232542 | 28 | 159 | 0.0 | 0.0 | 0.00 | 0.00 | 0.00 | 74 | 1020.6 |
| 20260830232038 | 28 | 184 | 0.0 | 1.6 | 0.00 | 0.00 | 0.00 | 72 | 1020.8 |
| 20260830231534 | 28 | 184 | 0.0 | 0.0 | 0.00 | 0.00 | 0.00 | 70 | 1020.6 |
| 20260830231033 | 28 | 156 | 0.0 | 0.0 | 0.00 | 0.00 | 0.00 | 68 | 1020.6 |
| 20260830230528 | 28 | 265 | 0.0 | 0.0 | 0.00 | 0.00 | 0.00 | 68 | 1020.7 |
| 20260830230023 | 29 | 265 | 0.0 | 0.0 | 0.00 | 0.00 | 0.00 | 67 | 1020.5 |
| 20260830225518 | 29 | 172 | 0.0 | 1.6 | 0.00 | 0.00 | 0.00 | 67 | 1020.6 |
| 20260830225017 | 29 | 147 | 0.0 | 0.0 | 0.00 | 0.00 | 0.00 | 66 | 1020.4 |
| 20260830224516 | 30 | 299 | 0.0 | 0.0 | 0.00 | 0.00 | 0.00 | 64 | 1020.5 |
| 20260830224013 | 30 | 248 | 3.2 | 4.8 | 0.00 | 0.00 | 0.00 | 61 | 1020.6 |
| 20260830223510 | 30 | 180 | 0.0 | 1.6 | 0.00 | 0.00 | 0.00 | 63 | 1020.4 |
| 20260830223009 | 30 | 254 | 0.0 | 3.2 | 0.00 | 0.00 | 0.00 | 63 | 1020.4 |
| 20260830222504 | 30 | 147 | 1.6 | 1.6 | 0.00 | 0.00 | 0.00 | 62 | 1020.4 |
| 20260830222000 | 30 | 170 | 0.0 | 1.6 | 0.00 | 0.00 | 0.00 | 61 | 1020.6 |
| 20260830221455 | 30 | 274 | 0.0 | 1.6 | 0.00 | 0.00 | 0.00 | 61 | 1020.5 |
| 20260830220945 | 30 | 133 | 1.6 | 3.2 | 0.00 | 0.00 | 0.00 | 61 | 1020.6 |
| 20260830220445 | 30 | 246 | 0.0 | 0.0 | 0.00 | 0.00 | 0.00 | 62 | 1020.4 |
| 20260830215943 | 30 | 192 | 0.0 | 1.6 | 0.00 | 0.00 | 0.00 | 62 | 1020.5 |
| 20260830215438 | 30 | 178 | 0.0 | 1.6 | 0.00 | 0.00 | 0.00 | 62 | 1020.4 |
| 20260830214933 | 30 | 336 | 0.0 | 1.6 | 0.00 | 0.00 | 0.00 | 62 | 1020.5 |
| 20260830214428 | 30 | 242 | 1.6 | 3.2 | 0.00 | 0.00 | 0.00 | 62 | 1020.5 |
| 20260830213922 | 30 | 174 | 0.0 | 3.2 | 0.00 | 0.00 | 0.00 | 62 | 1020.4 |
| 20260830213418 | 30 | 119 | 0.0 | 3.2 | 0.00 | 0.00 | 0.00 | 61 | 1020.6 |
| 20260830212913 | 30 | 254 | 0.0 | 1.6 | 0.00 | 0.00 | 0.00 | 60 | 1020.4 |
| 20260830212409 | 30 | 270 | 3.2 | 3.2 | 0.00 | 0.00 | 0.00 | 61 | 1020.4 |
| 20260830211908 | 30 | 166 | 4.8 | 4.8 | 0.00 | 0.00 | 0.00 | 60 | 1020.4 |
| 20260830211402 | 30 | 159 | 0.0 | 3.2 | 0.00 | 0.00 | 0.00 | 63 | 1020.4 |
| 20260830210858 | 30 | 156 | 0.0 | 3.2 | 0.00 | 0.00 | 0.00 | 62 | 1020.1 |
| 20260830210357 | 30 | 266 | 0.0 | 3.2 | 0.00 | 0.00 | 0.00 | 62 | 1020.2 |
| 20260830205855 | 31 | 79 | 1.6 | 3.2 | 0.00 | 0.00 | 0.00 | 61 | 1020.3 |
| 20260830205354 | 31 | 134 | 1.6 | 3.2 | 0.00 | 0.00 | 0.00 | 61 | 1020.3 |
| 20260830204850 | 30 | 161 | 1.6 | 3.2 | 0.00 | 0.00 | 0.00 | 62 | 1020.4 |
| 20260830204349 | 30 | 268 | 0.0 | 3.2 | 0.00 | 0.00 | 0.00 | 62 | 1020.4 |
| 20260830203844 | 30 | 156 | 0.0 | 1.6 | 0.00 | 0.00 | 0.00 | 62 | 1020.6 |
| 20260830203341 | 30 | 254 | 1.6 | 3.2 | 0.00 | 0.00 | 0.00 | 62 | 1020.7 |
| 20260830202839 | 30 | 225 | 1.6 | 3.2 | 0.00 | 0.00 | 0.00 | 62 | 1020.4 |
| 20260830202335 | 30 | 139 | 0.0 | 3.2 | 0.00 | 0.00 | 0.00 | 61 | 1020.6 |
| 20260830201830 | 30 | 97 | 1.6 | 4.8 | 0.00 | 0.00 | 0.00 | 62 | 1020.7 |
| 20260830201324 | 30 | 329 | 1.6 | 3.2 | 0.00 | 0.00 | 0.00 | 61 | 1020.8 |
| 20260830200820 | 31 | 35 | 3.2 | 4.8 | 0.00 | 0.00 | 0.00 | 60 | 1020.8 |
| 20260830200319 | 31 | 296 | 1.6 | 3.2 | 0.00 | 0.00 | 0.00 | 58 | 1020.7 |
| 20260830195815 | 31 | 285 | 0.0 | 1.6 | 0.00 | 0.00 | 0.00 | 58 | 1020.7 |
| 20260830195315 | 31 | 249 | 0.0 | 3.2 | 0.00 | 0.00 | 0.00 | 58 | 1021.0 |
| 20260830194813 | 31 | 294 | 1.6 | 4.8 | 0.00 | 0.00 | 0.00 | 58 | 1021.2 |
| 20260830194307 | 31 | 255 | 1.6 | 3.2 | 0.00 | 0.00 | 0.00 | 56 | 1021.1 |
| 20260830193802 | 32 | 168 | 3.2 | 3.2 | 0.00 | 0.00 | 0.00 | 57 | 1021.4 |
| 20260830193301 | 32 | 210 | 0.0 | 3.2 | 0.00 | 0.00 | 0.00 | 56 | 1021.5 |
| 20260830192757 | 31 | 312 | 0.0 | 1.6 | 0.00 | 0.00 | 0.00 | 58 | 1021.6 |
| 20260830192252 | 31 | 286 | 3.2 | 6.4 | 0.00 | 0.00 | 0.00 | 58 | 1021.8 |
| 20260830191748 | 31 | 293 | 4.8 | 4.8 | 0.00 | 0.00 | 0.00 | 61 | 1021.7 |
| 20260830191247 | 31 | 315 | 3.2 | 6.4 | 0.00 | 0.00 | 0.00 | 58 | 1021.6 |
| 20260830190743 | 31 | 241 | 0.0 | 4.8 | 0.00 | 0.00 | 0.00 | 58 | 1022.1 |
| 20260830190238 | 31 | 63 | 1.6 | 4.8 | 0.00 | 0.00 | 0.00 | 61 | 1021.8 |
| 20260830185736 | 31 | 334 | 0.0 | 3.2 | 0.00 | 0.00 | 0.00 | 60 | 1021.9 |
| 20260830185232 | 31 | 214 | 9.7 | 11.3 | 0.00 | 0.00 | 0.00 | 59 | 1022.2 |
| 20260830184731 | 31 | 224 | 3.2 | 3.2 | 0.00 | 0.00 | 0.00 | 59 | 1022.0 |
| 20260830184231 | 31 | 324 | 1.6 | 3.2 | 0.00 | 0.00 | 0.00 | 62 | 1022.2 |
| 20260830183726 | 31 | 9 | 0.0 | 4.8 | 0.00 | 0.00 | 0.00 | 62 | 1022.5 |
| 20260830183221 | 31 | 253 | 4.8 | 6.4 | 0.00 | 0.00 | 0.00 | 61 | 1022.3 |
| 20260830182716 | 30 | 153 | 3.2 | 4.8 | 0.00 | 0.00 | 0.00 | 62 | 1022.5 |
| 20260830182212 | 30 | 210 | 1.6 | 4.8 | 0.00 | 0.00 | 0.00 | 63 | 1022.5 |
| 20260830181708 | 30 | 282 | 0.0 | 9.7 | 0.00 | 0.00 | 0.00 | 64 | 1022.5 |
| 20260830181203 | 30 | 172 | 0.0 | 1.6 | 0.00 | 0.00 | 0.00 | 65 | 1022.6 |
| 20260830180701 | 30 | 345 | 0.0 | 4.8 | 0.00 | 0.00 | 0.00 | 64 | 1022.8 |
| 20260830180156 | 30 | 232 | 0.0 | 3.2 | 0.00 | 0.00 | 0.00 | 66 | 1022.9 |
| 20260830175655 | 30 | 299 | 0.0 | 4.8 | 0.00 | 0.00 | 0.00 | 62 | 1023.0 |
| 20260830175150 | 30 | 145 | 4.8 | 4.8 | 0.00 | 0.00 | 0.00 | 64 | 1023.1 |
| 20260830174646 | 30 | 154 | 0.0 | 6.4 | 0.00 | 0.00 | 0.00 | 65 | 1023.0 |
| 20260830174141 | 30 | 345 | 1.6 | 4.8 | 0.00 | 0.00 | 0.00 | 66 | 1023.1 |
| 20260830173636 | 30 | 98 | 1.6 | 4.8 | 0.00 | 0.00 | 0.00 | 65 | 1023.1 |
| 20260830173131 | 30 | 220 | 0.0 | 3.2 | 0.00 | 0.00 | 0.00 | 65 | 1023.1 |
| 20260830172628 | 30 | 143 | 0.0 | 3.2 | 0.00 | 0.00 | 0.00 | 65 | 1023.3 |
| 20260830172124 | 29 | 166 | 0.0 | 4.8 | 0.00 | 0.00 | 0.00 | 67 | 1023.3 |
| 20260830171624 | 29 | 184 | 0.0 | 1.6 | 0.00 | 0.00 | 0.00 | 67 | 1023.5 |
| 20260830171119 | 28 | 233 | 3.2 | 4.8 | 0.00 | 0.00 | 0.00 | 67 | 1023.5 |
| 20260830170614 | 29 | 329 | 1.6 | 6.4 | 0.00 | 0.00 | 0.00 | 65 | 1023.4 |
| 20260830170113 | 30 | 131 | 3.2 | 4.8 | 0.00 | 0.00 | 0.00 | 67 | 1023.6 |
| 20260830165608 | 29 | 235 | 1.6 | 6.4 | 0.00 | 0.00 | 0.00 | 66 | 1023.5 |
| 20260830165103 | 28 | 159 | 0.0 | 3.2 | 0.00 | 0.00 | 0.00 | 70 | 1023.6 |
| 20260830164559 | 28 | 244 | 0.0 | 6.4 | 0.00 | 0.00 | 0.00 | 69 | 1023.7 |
| 20260830164055 | 28 | 149 | 3.2 | 3.2 | 0.00 | 0.00 | 0.00 | 68 | 1023.6 |
| 20260830163552 | 28 | 124 | 0.0 | 8.0 | 0.00 | 0.00 | 0.00 | 68 | 1023.6 |
| 20260830163051 | 28 | 272 | 0.0 | 1.6 | 0.00 | 0.00 | 0.00 | 71 | 1023.7 |
| 20260830162547 | 28 | 157 | 3.2 | 4.8 | 0.00 | 0.00 | 0.00 | 71 | 1024.0 |
| 20260830162042 | 28 | 152 | 0.0 | 3.2 | 0.00 | 0.00 | 0.00 | 70 | 1023.7 |
| 20260830161536 | 28 | 265 | 3.2 | 3.2 | 0.00 | 0.00 | 0.00 | 71 | 1024.0 |
| 20260830161031 | 28 | 197 | 3.2 | 4.8 | 0.00 | 0.00 | 0.00 | 71 | 1023.9 |
| 20260830160528 | 28 | 53 | 1.6 | 4.8 | 0.00 | 0.00 | 0.00 | 71 | 1024.0 |
| 20260830160023 | 28 | 184 | 0.0 | 1.6 | 0.00 | 0.00 | 0.00 | 72 | 1024.1 |
| 20260830155519 | 28 | 142 | 0.0 | 3.2 | 0.00 | 0.00 | 0.00 | 73 | 1024.2 |
| 20260830155014 | 28 | 59 | 0.0 | 4.8 | 0.00 | 0.00 | 0.00 | 72 | 1024.4 |
| 20260830154509 | 28 | 195 | 1.6 | 6.4 | 0.00 | 0.00 | 0.00 | 71 | 1024.4 |
| 20260830154006 | 28 | 140 | 3.2 | 4.8 | 0.00 | 0.00 | 0.00 | 72 | 1024.2 |
| 20260830153502 | 27 | 10 | 0.0 | 1.6 | 0.00 | 0.00 | 0.00 | 73 | 1024.5 |
| 20260830153001 | 27 | 286 | 0.0 | 1.6 | 0.00 | 0.00 | 0.00 | 75 | 1024.3 |
| 20260830152456 | 27 | 3 | 1.6 | 3.2 | 0.00 | 0.00 | 0.00 | 73 | 1024.4 |
| 20260830151955 | 27 | 11 | 3.2 | 4.8 | 0.00 | 0.00 | 0.00 | 74 | 1024.3 |
| 20260830151454 | 27 | 309 | 0.0 | 4.8 | 0.00 | 0.00 | 0.00 | 75 | 1024.2 |
| 20260830150950 | 27 | 8 | 1.6 | 4.8 | 0.00 | 0.00 | 0.00 | 78 | 1024.6 |
| 20260830150444 | 26 | 294 | 4.8 | 4.8 | 0.00 | 0.00 | 0.00 | 78 | 1024.1 |
| 20260830145943 | 26 | 177 | 0.0 | 0.0 | 0.00 | 0.00 | 0.00 | 79 | 1024.3 |
| 20260830145438 | 26 | 88 | 1.6 | 3.2 | 0.00 | 0.00 | 0.00 | 79 | 1024.4 |
| 20260830144934 | 26 | 252 | 3.2 | 3.2 | 0.00 | 0.00 | 0.00 | 79 | 1024.3 |
| 20260830144431 | 26 | 67 | 0.0 | 1.6 | 0.00 | 0.00 | 0.00 | 81 | 1024.3 |
| 20260830143931 | 26 | 269 | 0.0 | 1.6 | 0.00 | 0.00 | 0.00 | 80 | 1024.5 |
| 20260830143426 | 26 | 167 | 3.2 | 3.2 | 0.00 | 0.00 | 0.00 | 81 | 1024.4 |
| 20260830142925 | 26 | 138 | 1.6 | 3.2 | 0.00 | 0.00 | 0.00 | 81 | 1024.4 |
| 20260830142420 | 26 | 63 | 1.6 | 4.8 | 0.00 | 0.00 | 0.00 | 83 | 1024.6 |
| 20260830141920 | 25 | 249 | 0.0 | 1.6 | 0.00 | 0.00 | 0.00 | 85 | 1024.6 |
| 20260830141416 | 25 | 159 | 0.0 | 1.6 | 0.00 | 0.00 | 0.00 | 85 | 1024.4 |
| 20260830140911 | 25 | 247 | 0.0 | 0.0 | 0.00 | 0.00 | 0.00 | 85 | 1024.4 |
| 20260830140406 | 25 | 11 | 3.2 | 3.2 | 0.00 | 0.00 | 0.00 | 87 | 1024.3 |
| 20260830135905 | 25 | 165 | 0.0 | 1.6 | 0.00 | 0.00 | 0.00 | 89 | 1024.6 |
| 20260830135401 | 25 | 90 | 0.0 | 1.6 | 0.00 | 0.00 | 0.00 | 89 | 1024.4 |
| 20260830134856 | 24 | 119 | 1.6 | 1.6 | 0.00 | 0.00 | 0.00 | 90 | 1024.6 |
| 20260830134351 | 24 | 138 | 3.2 | 3.2 | 0.00 | 0.00 | 0.00 | 91 | 1024.7 |
| 20260830133847 | 24 | 137 | 1.6 | 3.2 | 0.00 | 0.00 | 0.00 | 91 | 1024.9 |
| 20260830133342 | 24 | 151 | 3.2 | 4.8 | 0.00 | 0.00 | 0.00 | 91 | 1025.3 |
| 20260830132837 | 24 | 128 | 3.2 | 3.2 | 0.00 | 0.00 | 0.00 | 92 | 1025.3 |
| 20260830132333 | 23 | 117 | 0.0 | 1.6 | 0.00 | 0.00 | 0.00 | 94 | 1025.2 |
| 20260830131832 | 23 | 139 | 0.0 | 1.6 | 0.00 | 0.00 | 0.00 | 95 | 1025.0 |
| 20260830131327 | 23 | 147 | 3.2 | 3.2 | 0.00 | 0.00 | 0.00 | 95 | 1025.3 |
| 20260830130822 | 23 | 312 | 0.0 | 1.6 | 0.00 | 0.00 | 0.00 | 96 | 1025.2 |
| 20260830130318 | 23 | 153 | 0.0 | 3.2 | 0.00 | 0.00 | 0.00 | 97 | 1025.3 |
| 20260830125816 | 22 | 119 | 0.0 | 3.2 | 0.00 | 0.00 | 0.00 | 98 | 1025.2 |
| 20260830125312 | 22 | 125 | 1.6 | 1.6 | 0.00 | 0.00 | 0.00 | 98 | 1025.2 |
| 20260830124809 | 22 | 119 | 0.0 | 3.2 | 0.00 | 0.00 | 0.00 | 99 | 1025.3 |
| 20260830124305 | 22 | 110 | 1.6 | 3.2 | 0.00 | 0.00 | 0.00 | 99 | 1025.5 |
| 20260830123801 | 22 | 145 | 0.0 | 1.6 | 0.00 | 0.00 | 0.00 | 99 | 1025.3 |
| 20260830123257 | 22 | 132 | 0.0 | 1.6 | 0.00 | 0.00 | 0.00 | 99 | 1025.5 |
| 20260830122755 | 22 | 105 | 0.0 | 1.6 | 0.00 | 0.00 | 0.00 | 99 | 1025.6 |
| 20260830122250 | 22 | 70 | 0.0 | 1.6 | 0.00 | 0.00 | 0.00 | 99 | 1025.5 |
| 20260830121745 | 22 | 135 | 1.6 | 3.2 | 0.00 | 0.00 | 0.00 | 99 | 1025.2 |
| 20260830121244 | 22 | 82 | 0.0 | 3.2 | 0.00 | 0.00 | 0.00 | 99 | 1025.4 |
| 20260830120739 | 22 | 84 | 0.0 | 1.6 | 0.00 | 0.00 | 0.00 | 99 | 1025.3 |
| 20260830120236 | 22 | 152 | 3.2 | 3.2 | 0.00 | 0.00 | 0.00 | 99 | 1025.3 |
| 20260830115732 | 22 | 124 | 0.0 | 3.2 | 0.00 | 0.00 | 0.00 | 99 | 1025.2 |
| 20260830115227 | 21 | 131 | 1.6 | 3.2 | 0.00 | 0.00 | 0.00 | 99 | 1025.3 |
| 20260830114724 | 21 | 85 | 0.0 | 1.6 | 0.00 | 0.00 | 0.00 | 99 | 1025.3 |
| 20260830114218 | 21 | 119 | 1.6 | 3.2 | 0.00 | 0.00 | 0.00 | 99 | 1025.3 |
| 20260830113713 | 21 | 83 | 0.0 | 1.6 | 0.00 | 0.00 | 0.00 | 99 | 1025.0 |
| 20260830113208 | 21 | 132 | 0.0 | 1.6 | 0.00 | 0.00 | 0.00 | 99 | 1025.1 |
| 20260830112704 | 21 | 119 | 1.6 | 3.2 | 0.00 | 0.00 | 0.00 | 99 | 1025.0 |
| 20260830112200 | 21 | 114 | 0.0 | 1.6 | 0.00 | 0.00 | 0.00 | 99 | 1025.1 |
| 20260830111655 | 21 | 133 | 1.6 | 4.8 | 0.00 | 0.00 | 0.00 | 99 | 1025.2 |
| 20260830111151 | 21 | 140 | 0.0 | 1.6 | 0.00 | 0.00 | 0.00 | 99 | 1025.1 |
| 20260830110645 | 21 | 143 | 0.0 | 1.6 | 0.00 | 0.00 | 0.00 | 99 | 1025.0 |
| 20260830110141 | 21 | 162 | 0.0 | 0.0 | 0.00 | 0.00 | 0.00 | 99 | 1025.0 |
| 20260830105635 | 21 | 67 | 0.0 | 0.0 | 0.00 | 0.00 | 0.00 | 99 | 1025.2 |
| 20260830105131 | 21 | 71 | 0.0 | 1.6 | 0.00 | 0.00 | 0.00 | 99 | 1025.1 |
| 20260830104628 | 21 | 159 | 0.0 | 0.0 | 0.00 | 0.00 | 0.00 | 99 | 1024.9 |
| 20260830104125 | 21 | 151 | 1.6 | 3.2 | 0.00 | 0.00 | 0.00 | 99 | 1025.0 |
| 20260830103624 | 21 | 165 | 0.0 | 0.0 | 0.00 | 0.00 | 0.00 | 99 | 1025.0 |
| 20260830103119 | 20 | 141 | 0.0 | 3.2 | 0.00 | 0.00 | 0.00 | 99 | 1024.8 |
| 20260830102618 | 20 | 161 | 1.6 | 3.2 | 0.00 | 0.00 | 0.00 | 99 | 1025.0 |
| 20260830102114 | 20 | 146 | 3.2 | 3.2 | 0.00 | 0.00 | 0.00 | 99 | 1024.7 |
| 20260830101609 | 20 | 140 | 1.6 | 3.2 | 0.00 | 0.00 | 0.00 | 99 | 1024.8 |
| 20260830101109 | 20 | 154 | 0.0 | 1.6 | 0.00 | 0.00 | 0.00 | 99 | 1024.5 |
| 20260830100609 | 20 | 131 | 1.6 | 3.2 | 0.00 | 0.00 | 0.00 | 99 | 1024.6 |
| 20260830095557 | 20 | 183 | 0.0 | 0.0 | 0.00 | 0.00 | 0.00 | 99 | 1024.6 |
| 20260830095053 | 20 | 180 | 0.0 | 1.6 | 0.00 | 0.00 | 0.00 | 99 | 1024.5 |
| 20260830094549 | 20 | 119 | 0.0 | 3.2 | 0.00 | 0.00 | 0.00 | 99 | 1024.7 |
| 20260830094044 | 20 | 143 | 1.6 | 3.2 | 0.00 | 0.00 | 0.00 | 99 | 1024.3 |
| 20260830093539 | 20 | 161 | 0.0 | 3.2 | 0.00 | 0.00 | 0.00 | 99 | 1024.4 |
| 20260830093036 | 20 | 143 | 3.2 | 3.2 | 0.00 | 0.00 | 0.00 | 99 | 1024.5 |
| 20260830092530 | 20 | 141 | 1.6 | 3.2 | 0.00 | 0.00 | 0.00 | 99 | 1024.5 |
| 20260830092027 | 20 | 150 | 1.6 | 3.2 | 0.00 | 0.00 | 0.00 | 99 | 1024.5 |
| 20260830091522 | 20 | 144 | 1.6 | 3.2 | 0.00 | 0.00 | 0.00 | 99 | 1024.3 |
| 20260830091021 | 20 | 162 | 1.6 | 3.2 | 0.00 | 0.00 | 0.00 | 99 | 1024.5 |
| 20260830090516 | 20 | 162 | 0.0 | 3.2 | 0.00 | 0.00 | 0.00 | 99 | 1024.4 |
| 20260830090011 | 20 | 159 | 0.0 | 1.6 | 0.00 | 0.00 | 0.00 | 99 | 1024.3 |
| 20260830085506 | 20 | 139 | 0.0 | 1.6 | 0.00 | 0.00 | 0.00 | 99 | 1024.2 |
| 20260830085002 | 20 | 135 | 1.6 | 3.2 | 0.00 | 0.00 | 0.00 | 99 | 1024.3 |
| 20260830084456 | 20 | 143 | 3.2 | 3.2 | 0.00 | 0.00 | 0.00 | 99 | 1024.4 |
| 20260830083951 | 20 | 160 | 1.6 | 1.6 | 0.00 | 0.00 | 0.00 | 99 | 1024.5 |
| 20260830083447 | 20 | 99 | 0.0 | 1.6 | 0.00 | 0.00 | 0.00 | 99 | 1024.3 |
| 20260830082946 | 20 | 123 | 1.6 | 3.2 | 0.00 | 0.00 | 0.00 | 99 | 1024.3 |
| 20260830082442 | 20 | 138 | 1.6 | 3.2 | 0.00 | 0.00 | 0.00 | 99 | 1024.4 |
| 20260830081936 | 20 | 123 | 1.6 | 3.2 | 0.00 | 0.00 | 0.00 | 99 | 1024.6 |
| 20260830081432 | 20 | 143 | 0.0 | 1.6 | 0.00 | 0.00 | 0.00 | 99 | 1024.4 |
| 20260830080931 | 20 | 119 | 0.0 | 1.6 | 0.00 | 0.00 | 0.00 | 99 | 1024.5 |
| 20260830080428 | 19 | 85 | 0.0 | 3.2 | 0.00 | 0.00 | 0.00 | 99 | 1024.9 |
| 20260830075927 | 19 | 159 | 0.0 | 1.6 | 0.00 | 0.00 | 0.00 | 99 | 1024.6 |
| 20260830075422 | 19 | 137 | 1.6 | 3.2 | 0.00 | 0.00 | 0.00 | 99 | 1024.6 |
| 20260830074917 | 19 | 155 | 1.6 | 3.2 | 0.00 | 0.00 | 0.00 | 99 | 1024.7 |
| 20260830074407 | 19 | 123 | 1.6 | 3.2 | 0.00 | 0.00 | 0.00 | 99 | 1024.7 |
| 20260830073903 | 19 | 172 | 3.2 | 3.2 | 0.00 | 0.00 | 0.00 | 99 | 1024.6 |
| 20260830073358 | 19 | 151 | 0.0 | 3.2 | 0.00 | 0.00 | 0.00 | 99 | 1024.7 |
| 20260830072853 | 19 | 139 | 1.6 | 3.2 | 0.00 | 0.00 | 0.00 | 99 | 1024.5 |
| 20260830072349 | 19 | 147 | 3.2 | 3.2 | 0.00 | 0.00 | 0.00 | 99 | 1024.6 |
| 20260830071843 | 19 | 128 | 1.6 | 3.2 | 0.00 | 0.00 | 0.00 | 99 | 1024.5 |
| 20260830071337 | 19 | 152 | 0.0 | 3.2 | 0.00 | 0.00 | 0.00 | 99 | 1024.6 |
| 20260830070836 | 19 | 119 | 1.6 | 3.2 | 0.00 | 0.00 | 0.00 | 98 | 1024.5 |
| 20260830070331 | 19 | 162 | 1.6 | 1.6 | 0.00 | 0.00 | 0.00 | 98 | 1024.7 |
| 20260830065830 | 19 | 143 | 0.0 | 0.0 | 0.00 | 0.00 | 0.00 | 98 | 1024.6 |
| 20260830065325 | 19 | 172 | 1.6 | 3.2 | 0.00 | 0.00 | 0.00 | 98 | 1024.9 |
| 20260830064823 | 19 | 154 | 1.6 | 3.2 | 0.00 | 0.00 | 0.00 | 98 | 1024.7 |
| 20260830064319 | 19 | 140 | 1.6 | 3.2 | 0.00 | 0.00 | 0.00 | 98 | 1024.9 |
| 20260830063818 | 20 | 138 | 1.6 | 3.2 | 0.00 | 0.00 | 0.00 | 98 | 1024.8 |
| 20260830063308 | 20 | 130 | 1.6 | 3.2 | 0.00 | 0.00 | 0.00 | 98 | 1024.8 |
| 20260830062802 | 20 | 119 | 0.0 | 0.0 | 0.00 | 0.00 | 0.00 | 98 | 1024.9 |
| 20260830062305 | 20 | 152 | 0.0 | 3.2 | 0.00 | 0.00 | 0.00 | 98 | 1024.9 |
| 20260830061756 | 20 | 171 | 3.2 | 3.2 | 0.00 | 0.00 | 0.00 | 98 | 1025.1 |
| 20260830061251 | 20 | 182 | 1.6 | 3.2 | 0.00 | 0.00 | 0.00 | 98 | 1025.1 |
| 20260830060748 | 20 | 162 | 3.2 | 4.8 | 0.00 | 0.00 | 0.00 | 98 | 1025.1 |
| 20260830060245 | 20 | 169 | 3.2 | 3.2 | 0.00 | 0.00 | 0.00 | 98 | 1025.1 |
| 20260830055739 | 20 | 142 | 3.2 | 3.2 | 0.00 | 0.00 | 0.00 | 98 | 1024.9 |
| 20260830055236 | 20 | 149 | 0.0 | 1.6 | 0.00 | 0.00 | 0.00 | 98 | 1024.8 |
| 20260830054730 | 20 | 119 | 1.6 | 1.6 | 0.00 | 0.00 | 0.00 | 98 | 1025.1 |
| 20260830054226 | 20 | 146 | 0.0 | 1.6 | 0.00 | 0.00 | 0.00 | 98 | 1025.1 |
| 20260830053721 | 20 | 123 | 0.0 | 3.2 | 0.00 | 0.00 | 0.00 | 98 | 1024.9 |
| 20260830053221 | 20 | 143 | 3.2 | 3.2 | 0.00 | 0.00 | 0.00 | 98 | 1024.9 |
| 20260830052716 | 20 | 147 | 1.6 | 3.2 | 0.00 | 0.00 | 0.00 | 98 | 1024.9 |
| 20260830052211 | 20 | 119 | 0.0 | 3.2 | 0.00 | 0.00 | 0.00 | 98 | 1025.0 |
| 20260830051710 | 20 | 143 | 0.0 | 3.2 | 0.00 | 0.00 | 0.00 | 98 | 1024.9 |
| 20260830051206 | 20 | 126 | 1.6 | 3.2 | 0.00 | 0.00 | 0.00 | 98 | 1025.0 |
| 20260830050705 | 20 | 119 | 0.0 | 1.6 | 0.00 | 0.00 | 0.00 | 98 | 1025.2 |
| 20260830050201 | 20 | 146 | 0.0 | 3.2 | 0.00 | 0.00 | 0.00 | 98 | 1025.2 |
| 20260830045659 | 20 | 119 | 0.0 | 1.6 | 0.00 | 0.00 | 0.00 | 98 | 1025.3 |
| 20260830045155 | 20 | 143 | 0.0 | 1.6 | 0.00 | 0.00 | 0.00 | 97 | 1025.4 |
| 20260830044653 | 20 | 149 | 0.0 | 1.6 | 0.00 | 0.00 | 0.00 | 97 | 1025.3 |
| 20260830044149 | 20 | 159 | 0.0 | 1.6 | 0.00 | 0.00 | 0.00 | 97 | 1025.5 |
| 20260830043649 | 20 | 150 | 0.0 | 3.2 | 0.00 | 0.00 | 0.00 | 97 | 1025.4 |
| 20260830043149 | 20 | 145 | 1.6 | 1.6 | 0.00 | 0.00 | 0.00 | 97 | 1025.3 |
| 20260830042646 | 20 | 148 | 1.6 | 3.2 | 0.00 | 0.00 | 0.00 | 97 | 1025.4 |
| 20260830042142 | 20 | 144 | 0.0 | 1.6 | 0.00 | 0.00 | 0.00 | 97 | 1025.3 |
| 20260830041640 | 20 | 143 | 1.6 | 3.2 | 0.00 | 0.00 | 0.00 | 97 | 1025.3 |
| 20260830041140 | 20 | 137 | 1.6 | 3.2 | 0.00 | 0.00 | 0.00 | 97 | 1025.3 |
| 20260830040636 | 20 | 143 | 0.0 | 1.6 | 0.00 | 0.00 | 0.00 | 97 | 1025.3 |
| 20260830040132 | 20 | 143 | 1.6 | 3.2 | 0.00 | 0.00 | 0.00 | 97 | 1025.0 |
| 20260830035630 | 20 | 148 | 3.2 | 3.2 | 0.00 | 0.00 | 0.00 | 97 | 1025.0 |
| 20260830035125 | 20 | 160 | 1.6 | 3.2 | 0.00 | 0.00 | 0.00 | 96 | 1025.1 |
| 20260830034620 | 20 | 154 | 1.6 | 3.2 | 0.00 | 0.00 | 0.00 | 96 | 1025.0 |
| 20260830034119 | 20 | 164 | 0.0 | 1.6 | 0.00 | 0.00 | 0.00 | 96 | 1024.7 |
| 20260830033614 | 20 | 164 | 1.6 | 3.2 | 0.00 | 0.00 | 0.00 | 96 | 1024.9 |
| 20260830033110 | 20 | 169 | 0.0 | 3.2 | 0.00 | 0.00 | 0.00 | 96 | 1024.7 |
| 20260830032609 | 20 | 154 | 1.6 | 3.2 | 0.00 | 0.00 | 0.00 | 96 | 1024.7 |
| 20260830032105 | 21 | 140 | 1.6 | 3.2 | 0.00 | 0.00 | 0.00 | 95 | 1024.5 |
| 20260830031600 | 21 | 153 | 1.6 | 3.2 | 0.00 | 0.00 | 0.00 | 95 | 1024.7 |
| 20260830031055 | 21 | 155 | 1.6 | 3.2 | 0.00 | 0.00 | 0.00 | 95 | 1024.5 |
| 20260830030551 | 21 | 172 | 3.2 | 3.2 | 0.00 | 0.00 | 0.00 | 95 | 1024.6 |
| 20260830030046 | 21 | 164 | 1.6 | 3.2 | 0.00 | 0.00 | 0.00 | 95 | 1024.5 |
| 20260830025544 | 21 | 183 | 1.6 | 3.2 | 0.00 | 0.00 | 0.00 | 95 | 1024.3 |
| 20260830025044 | 21 | 135 | 1.6 | 3.2 | 0.00 | 0.00 | 0.00 | 94 | 1024.1 |
| 20260830024540 | 21 | 163 | 1.6 | 3.2 | 0.00 | 0.00 | 0.00 | 94 | 1024.2 |
| 20260830024039 | 21 | 162 | 3.2 | 3.2 | 0.00 | 0.00 | 0.00 | 94 | 1024.2 |
| 20260830023536 | 21 | 178 | 3.2 | 3.2 | 0.00 | 0.00 | 0.00 | 94 | 1024.3 |
| 20260830023031 | 21 | 158 | 3.2 | 3.2 | 0.00 | 0.00 | 0.00 | 93 | 1024.4 |
| 20260830022525 | 21 | 146 | 3.2 | 3.2 | 0.00 | 0.00 | 0.00 | 93 | 1024.2 |
| 20260830022021 | 21 | 167 | 1.6 | 3.2 | 0.00 | 0.00 | 0.00 | 93 | 1024.3 |
| 20260830021521 | 21 | 146 | 1.6 | 3.2 | 0.00 | 0.00 | 0.00 | 92 | 1024.5 |
| 20260830021016 | 22 | 154 | 0.0 | 3.2 | 0.00 | 0.00 | 0.00 | 92 | 1024.4 |
| 20260830020515 | 22 | 173 | 1.6 | 3.2 | 0.00 | 0.00 | 0.00 | 92 | 1024.2 |
| 20260830020011 | 22 | 138 | 1.6 | 3.2 | 0.00 | 0.00 | 0.00 | 92 | 1024.1 |
| 20260830015506 | 22 | 144 | 3.2 | 3.2 | 0.00 | 0.00 | 0.00 | 91 | 1024.3 |
| 20260830015002 | 22 | 158 | 1.6 | 3.2 | 0.00 | 0.00 | 0.00 | 90 | 1024.1 |
| 20260830014457 | 22 | 183 | 0.0 | 3.2 | 0.00 | 0.00 | 0.00 | 90 | 1024.1 |
| 20260830013953 | 22 | 162 | 0.0 | 1.6 | 0.00 | 0.00 | 0.00 | 90 | 1024.1 |
| 20260830013448 | 22 | 149 | 0.0 | 1.6 | 0.00 | 0.00 | 0.00 | 90 | 1024.1 |
| 20260830012948 | 22 | 147 | 0.0 | 3.2 | 0.00 | 0.00 | 0.00 | 89 | 1023.9 |
| 20260830012443 | 23 | 147 | 0.0 | 1.6 | 0.00 | 0.00 | 0.00 | 88 | 1024.0 |
| 20260830011940 | 23 | 157 | 1.6 | 3.2 | 0.00 | 0.00 | 0.00 | 88 | 1024.1 |
| 20260830011435 | 23 | 178 | 3.2 | 3.2 | 0.00 | 0.00 | 0.00 | 87 | 1023.9 |